Location: Buchberg
(46.9333°N, 15.8500°E)
Time: 04:35:52
(UTC+00:00)

Cosmos 2034 Rocket - Pass Details

Date: 14 July 2020
Orbit: 959 x 1000 km, 82.9° (Epoch: 11 August)

Event Time Altitude Azimuth Distance (km) Brightness Sun altitude
Rises 02:09:41 0° 175° (S) 3,627 6.6 -9.5°
Reaches altitude 10° 02:12:11 10° 172° (S) 2,684 6.0 -9.2°
Maximum altitude 02:18:13 62° 93° (E) 1,075 4.5 -8.5°
Drops below altitude 10° 02:24:18 10° 15° (NNE) 2,712 7.4 -7.8°
Sets 02:26:51 0° 12° (NNE) 3,667 8.0 -7.4°
